DMSP 5D-2 F13 DEB, 40677

Orbit data source: Space-Track

DMSP 5D-2 F13 DEB, 40677 is space debris in SSO originally from a launch on Fri, 24 Mar 1995 UTC launched from the Air Force Western Test Range (AFWTR). Debris objects in space refer to the collection of defunct objects orbiting the Earth. Examples of debris include non-operational satellites, rocket bodies, and fragments generated from explosions, collisions, or faulty payload assembly.

Loading next visibility...
Identifier
40677, 1995-015FR
Orbit
SSO
Country
Flag of USUS
Related business
Manufacturer
Unknown
Mission
Spacecraft
Bus & Motor
Unknown
Mass
Unknown
Launch date (UTC)
1995-03-24 (30 years ago)
Launch vehicle
Unknown
Launch site
Air Force Western Test Range (AFWTR)
Object type
Payload
Rocket body
Debris
Shape & HBR
Unknown
Radar Cross Section
Small (<0.1 m²)

Expand to show TLE details & history
Last TLE update: 2 weeks ago

TLE from 2 weeks ago
0 DMSP 5D-2 F13 DEB
1 40677U 95015FR  25245.30923048  .00001291  00000-0  53403-3 0  9992
2 40677  98.6060 261.6731 0049042  29.1780 331.2125 14.27712292539345
Epoch: 2025-09-02T07:25Z
TLE epoch observation values (Epoch: 2025-09-02T07:25:17.513Z)
Latitude
-0.00002°
Longitude
168.64781°
Altitude
771.501 km
Speed
7.484 km/s
True Right ascension
17h 26m 41s
True Declination
0° 00' 00"
Sunlit
Object was in daylight at epoch
Visualization orbit readout
Latitude
Unknown
Longitude
Unknown
Altitude
Unknown
Speed
Unknown
Apparent Right ascension
Unknown
Apparent Declination
Unknown
Sunlit
N/A
Visualization observer readout
Local Sidereal Time
15:10:50
Azimuth
Unknown
Elevation
Unknown
Doppler factor
Unknown
Orbital elements
Apogee altitude
831.717 km
Perigee altitude
761.345 km
Semi-major axis
7,174.668 km
Eccentricity
0.0049
Inclination
98.606°
RAAN
261.6731°
Arg. of periapsis
29.178°
True anomaly
330.94041°
Mean anomaly
331.2125°
Eccentric anomaly
331.0766°
Mean motion
3.57142 °/min
Orbital period
100.8 mins
BSTAR
0.00053403
Loading maneuver chart data...
Computing Atmospheric mass density...

Documentation

Showing up to 5 results
|